[[{"header":{"parameterUnit":"m.s-1","parameterCategory":1,"la1":30.2992,"la2":30.254,"lo1":-89.0895,"lo2":-89.0443,"dy":0.0025,"dx":0.0025,"nx":19,"ny":19,"refTime":"2026-04-02T09:00:00:Z","depth":0,"parameterNumber":2,"parameterNumberName":"U-component_of_WINDS"},"data":[0,0,0,-4.5963,-4.5966,-4.611,-4.611,-4.63,-4.6302,0,0,0,0,0,0,0,0,0,0,0,-4.5925,-4.5926,-4.5963,-4.5966,-4.611,-4.611,-4.63,-4.6302,0,0,0,0,0,0,0,0,0,0,0,-4.5924,-4.5926,-4.5928,-4.5967,-4.611,-4.611,-4.6299,-4.6189,0,0,0,0,0,0,0,0,0,0,-4.6048,-4.6017,-4.5925,-4.5928,-4.5968,-4.6109,-4.611,-4.6183,-4.6196,-4.6238,0,-4.6277,0,-4.6293,-4.6315,-4.6316,0,0,0,-4.5963,-4.6007,-4.6042,-4.5928,-4.5969,-4.6109,-4.6044,-4.619,-4.6204,-4.6254,-4.628,-4.6287,-4.6296,-4.6316,-4.6317,-4.6573,-4.6575,0,0,-4.5955,-4.5953,-4.6032,-4.6051,-4.603,-4.6039,-4.6049,-4.6198,-4.6226,-4.628,-4.6291,-4.6299,-4.6317,-4.6319,-4.6572,-4.6574,0,0,0,-4.5935,-4.5947,-4.5978,-4.6044,-4.6069,-4.6044,-4.6054,-4.6219,-4.6229,-4.6293,-4.6301,-4.6319,-4.6321,-4.6571,-4.6573,-4.6636,0,0,0,-4.593,-4.5935,-4.5975,-4.5975,-4.6066,-4.6146,-4.6072,-4.6219,-4.6236,-4.63,-4.6319,-4.6323,-4.6569,-4.6572,-4.6631,-4.6665,0,0,0,-4.5914,-4.5933,-4.5956,-4.5975,-4.6036,-4.6143,-4.6162,-4.6223,-4.6241,-4.6316,-4.6323,-4.6568,-4.6571,-4.6626,-4.6658,-4.673,0,0,0,-4.5896,-4.601,-4.5957,-4.6088,-4.6035,-4.6183,-4.6161,-4.6271,-4.6343,-4.632,-4.6569,-4.6572,-4.6625,-4.6653,-4.6725,-4.6788,-4.6815,0,0,-4.6038,-4.6027,-4.6104,-4.6061,-4.6217,-4.6161,-4.6326,-4.6394,-4.6404,-4.6516,-4.6522,-4.6632,-4.6657,-4.6729,-4.6971,-4.6992,0,0,0,-4.6148,-4.6203,-4.6246,-4.6314,-4.6369,-4.6419,-4.6462,-4.6487,-4.6583,-4.6461,-4.668,-4.6694,-4.6737,-4.6767,-4.6785,-4.682,-4.6587,-4.6587,-4.6586,-4.6344,-4.6351,-4.6478,-4.6503,-4.657,-4.6613,-4.6668,-4.6709,-4.6696,-4.6748,-4.678,-4.6927,-4.6962,-4.6975,-4.7012,-4.6817,-4.6817,-4.6817,-4.6818,-4.655,-4.6628,-4.661,-4.6727,-4.6734,-4.6832,-4.688,-4.6867,-4.6959,-4.6903,-4.694,-4.6875,-4.6998,-4.7031,-4.6822,-4.6822,-4.6821,-4.682,-4.682,-4.6676,-4.6715,-4.6745,-4.6844,-4.6921,-4.6942,-4.7031,-4.7035,-4.7039,-4.7076,-4.7109,-4.7108,-4.7105,-4.7093,-4.7093,-4.7094,-4.7094,-4.7095,-4.7095,-4.6793,-4.6826,-4.69,-4.697,-4.7014,-4.7073,-4.712,-4.7164,-4.7213,-4.7208,-4.7208,-4.7189,-4.7011,-4.6964,-4.7103,-4.7101,-4.71,-4.7099,-4.7099,-4.6995,-4.695,-4.7065,-4.711,-4.7192,-4.7267,-4.7272,-4.7361,-4.7397,-4.7441,-4.7416,-4.7284,-4.7272,-4.7258,-4.7219,-4.7415,-4.7415,-4.7415,-4.7415,-4.7098,-4.7094,-4.7212,-4.7283,-4.7354,-4.737,-4.7499,-4.7538,-4.757,-4.7593,-4.7566,-4.7516,-4.7502,-4.7498,-4.7479,-4.7442,-4.7691,-4.7691,-4.7691,-4.7221,-4.7224,-4.7333,-4.7364,-4.7429,-4.7485,-4.7606,-4.7688,-4.7716,-4.7703,-4.7611,-4.7599,-4.7518,-4.7492,-4.7473,-4.7443,-4.7376,0,0]},{"header":{"parameterUnit":"m.s-1","parameterCategory":1,"la1":30.2992,"la2":30.254,"lo1":-89.0895,"lo2":-89.0443,"dy":0.0025,"dx":0.0025,"nx":19,"ny":19,"refTime":"2026-04-02T09:00:00:Z","depth":0,"parameterNumber":3,"parameterNumberName":"V-component_of_WINDS"},"data":[0,0,0,2.616,2.6161,2.6229,2.6229,2.6319,2.632,0,0,0,0,0,0,0,0,0,0,0,2.6141,2.6142,2.6159,2.6161,2.6229,2.6229,2.6319,2.632,0,0,0,0,0,0,0,0,0,0,0,2.6141,2.6142,2.6142,2.6161,2.6229,2.623,2.6319,2.6266,0,0,0,0,0,0,0,0,0,0,2.62,2.6184,2.6141,2.6142,2.6162,2.6229,2.623,2.6264,2.6269,2.6289,0,2.6308,0,2.6315,2.6326,2.6326,0,0,0,2.6159,2.6179,2.6197,2.6143,2.6163,2.6229,2.6198,2.6267,2.6273,2.6297,2.6309,2.6312,2.6317,2.6327,2.6327,2.645,2.645,0,0,2.6156,2.6154,2.6192,2.6201,2.6191,2.6196,2.62,2.6271,2.6283,2.6309,2.6314,2.6318,2.6327,2.6328,2.6449,2.645,0,0,0,2.6146,2.6151,2.6167,2.6197,2.6209,2.6198,2.6203,2.628,2.6285,2.6315,2.6319,2.6328,2.6329,2.6448,2.6449,2.6481,0,0,0,2.6144,2.6146,2.6165,2.6165,2.6208,2.6246,2.6211,2.6281,2.6289,2.6319,2.6328,2.633,2.6448,2.6449,2.6479,2.6496,0,0,0,2.6136,2.6145,2.6155,2.6164,2.6194,2.6245,2.6254,2.6282,2.6291,2.6326,2.633,2.6447,2.6449,2.6477,2.6493,2.6529,0,0,0,2.6127,2.6181,2.6156,2.6218,2.6193,2.6264,2.6253,2.6306,2.634,2.6328,2.6448,2.6449,2.6476,2.649,2.6527,2.656,2.6574,0,0,2.6194,2.6189,2.6225,2.6205,2.628,2.6254,2.6333,2.6365,2.6369,2.6423,2.6426,2.648,2.6492,2.6529,2.665,2.666,0,0,0,2.6246,2.6272,2.6293,2.6326,2.6353,2.6378,2.6398,2.641,2.6456,2.6397,2.6502,2.651,2.6531,2.6548,2.6557,2.6576,2.6457,2.6456,2.6456,2.6337,2.6342,2.6403,2.6417,2.6449,2.6471,2.6498,2.6518,2.6511,2.6537,2.6552,2.6625,2.6644,2.6651,2.6671,2.657,2.657,2.657,2.657,2.6436,2.6475,2.6468,2.6525,2.653,2.6578,2.6602,2.6596,2.6641,2.6613,2.6632,2.6601,2.6663,2.6681,2.6573,2.6572,2.6572,2.6572,2.6571,2.6497,2.6516,2.6532,2.6583,2.6621,2.6632,2.6678,2.668,2.6681,2.67,2.6719,2.6718,2.6719,2.6709,2.6709,2.671,2.671,2.671,2.671,2.6554,2.657,2.6609,2.6644,2.6667,2.6698,2.6722,2.6745,2.6771,2.6768,2.6769,2.6761,2.6668,2.6645,2.6714,2.6713,2.6713,2.6713,2.6712,2.6653,2.6632,2.6691,2.6715,2.6758,2.6797,2.68,2.6846,2.6865,2.6888,2.6877,2.6808,2.6802,2.6795,2.6776,2.6875,2.6875,2.6875,2.6875,2.6705,2.6703,2.6766,2.6804,2.6841,2.685,2.6918,2.6939,2.6956,2.6969,2.6955,2.693,2.6922,2.6921,2.6911,2.6894,2.702,2.702,2.702,2.6767,2.677,2.6827,2.6845,2.688,2.691,2.6974,2.7018,2.7033,2.7026,2.6979,2.6973,2.6932,2.6919,2.691,2.6894,2.6862,0,0]}]]